Phuket, Thailand

7:20 AM +07 on July 28, 2017 (GMT +0700)
Phuket International

Weather History for VTSP - April, 2013

Change the Weather History Date:

Saturday, April 27, 2013

  Actual Average Record
Temperature  
Mean Temperature 79 °F -  
Max Temperature 82 °F 89 °F 95 °F (1997)
Min Temperature 76 °F 78 °F 75 °F (2008)
Cooling Degree Days 14    
Growing Degree Days 29 (Base 50)    
Moisture  
Dew Point 74 °F    
Average Humidity 83    
Maximum Humidity 93    
Minimum Humidity 74    
Precipitation  
Precipitation 0.31 in 0.43 in - ()
Sea Level Pressure  
Sea Level Pressure 29.84 in    
Wind  
Wind Speed 4 mph ()    
Max Wind Speed 23 mph    
Max Gust Speed -    
Visibility 5.8 miles    
Events Rain , Thunderstorm    
Averages and records for this station are not official NWS values.
T = Trace of Precipitation, MM = Missing Value Source: Averaged Metar Reports

Daily Weather History Graph

Daily Weather History Graph

Search for Another Location

Airport or City:

Trip Planner

Search our weather history database for the weather conditions in past years. The results will help you decide how hot, cold, wet, or windy it might be!

Date:

Astronomy

Apr. 27, 2013 Rise Set
Actual Time 6:12 AM +07 6:35 PM +07
Civil Twilight 5:51 AM +07 6:57 PM +07
Nautical Twilight 5:26 AM +07 7:22 PM +07
Astronomical Twilight 5:00 AM +07 7:48 PM +07
Moon 8:12 PM +07 (4/27) 7:18 AM +07 (4/27)
Length of Visible Light 13h 06m
Length of Day
12h 23m
Full, 97% of the Moon is Illuminated
Apr 27
Full
May 2
Last Quarter
May 10
New
May 18
First Quarter
May 25
Full

Hourly Weather History & Observations

Time (+07) Temp. Heat Index Dew Point Humidity Pressure Visibility Wind Dir Wind Speed Gust Speed Precip Events Conditions
12:00 AM 78.8 °F - 75.2 °F 89% 29.86 in 6.2 mi Calm Calm - N/A   Mostly Cloudy
12:30 AM 80.6 °F 86.2 °F 75.2 °F 84% 29.86 in 6.2 mi Calm Calm - N/A   Mostly Cloudy
1:00 AM 80 °F - 76 °F 85% 29.83 in 6 mi Calm Calm - -   Scattered Clouds
1:30 AM 78.8 °F - 75.2 °F 89% 29.83 in 5.6 mi Calm Calm - N/A Thunderstorm Thunderstorm
2:00 AM 80.6 °F 86.2 °F 75.2 °F 84% 29.83 in 5.6 mi WNW 8.1 mph - N/A Thunderstorm Thunderstorm
2:30 AM 84.2 °F 92.3 °F 75.2 °F 74% 29.83 in 5.6 mi West 11.5 mph - N/A   Mostly Cloudy
3:00 AM 80.6 °F 86.2 °F 75.2 °F 84% 29.83 in 6.2 mi WSW 5.8 mph - N/A   Mostly Cloudy
3:30 AM 78.8 °F - 75.2 °F 89% 29.80 in 6.2 mi Calm Calm - N/A   Mostly Cloudy
4:00 AM 78.8 °F - 75.2 °F 89% 29.80 in 6.2 mi Calm Calm - N/A   Mostly Cloudy
4:30 AM 77.0 °F - 73.4 °F 89% 29.83 in 6.2 mi Calm Calm - N/A   Mostly Cloudy
5:00 AM 78.8 °F - 75.2 °F 89% 29.83 in 6.2 mi Calm Calm - N/A   Mostly Cloudy
6:00 AM 80.6 °F 86.2 °F 75.2 °F 84% 29.83 in 5.0 mi West 6.9 mph - N/A Rain Rain
6:30 AM 80.6 °F 85.4 °F 73.4 °F 79% 29.86 in 6.2 mi WNW 5.8 mph - N/A   Mostly Cloudy
7:00 AM 80 °F - 78 °F 93% 29.82 in 6 mi Calm Calm - - Rain Light Rain
7:00 AM 80.6 °F 86.2 °F 75.2 °F 84% 29.86 in 6.2 mi Calm Calm - N/A   Mostly Cloudy
7:30 AM 82.4 °F 89.5 °F 75.2 °F 79% 29.86 in 6.2 mi Calm Calm - N/A   Mostly Cloudy
8:00 AM 82.4 °F 88.2 °F 73.4 °F 74% 29.86 in 6.2 mi Calm Calm - N/A   Mostly Cloudy
8:30 AM 82.4 °F 89.5 °F 75.2 °F 79% 29.89 in 5.6 mi Calm Calm - N/A   Mostly Cloudy
9:00 AM 82.4 °F 90.9 °F 77.0 °F 84% 29.92 in 5.6 mi SSW 5.8 mph - N/A   Mostly Cloudy
9:30 AM 80.6 °F 85.4 °F 73.4 °F 79% 29.92 in 5.0 mi SW 13.8 mph - N/A Thunderstorm Thunderstorm
10:00 AM 78.8 °F - 75.2 °F 89% 29.92 in 5.0 mi WSW 11.5 mph - N/A Thunderstorm Thunderstorm
10:30 AM 78.8 °F - 73.4 °F 83% 29.95 in 5.0 mi SSW 10.4 mph - N/A   Mostly Cloudy
11:00 AM 78.8 °F - 73.4 °F 83% 29.95 in 4.3 mi SSW 16.1 mph - N/A Rain Light Rain
11:30 AM 78.8 °F - 73.4 °F 83% 29.92 in 5.0 mi SW 23.0 mph - N/A   Mostly Cloudy
12:00 PM 78.8 °F - 73.4 °F 83% 29.89 in 5.0 mi WSW 13.8 mph - N/A   Mostly Cloudy
12:30 PM 80.6 °F 86.2 °F 75.2 °F 84% 29.89 in 5.6 mi WSW 8.1 mph - N/A   Mostly Cloudy
1:00 PM 82 °F - 76 °F 79% 29.86 in 5 mi West 3.5 mph - -   Partly Cloudy
1:00 PM 80.6 °F 86.2 °F 75.2 °F 84% 29.89 in 6.2 mi West 9.2 mph - N/A   Mostly Cloudy
1:30 PM 82.4 °F 88.2 °F 73.4 °F 74% 29.86 in 6.2 mi WNW 8.1 mph - N/A   Mostly Cloudy
2:00 PM 82.4 °F 89.5 °F 75.2 °F 79% 29.83 in 6.2 mi WNW 6.9 mph - N/A   Mostly Cloudy
2:30 PM 80.6 °F 85.4 °F 73.4 °F 79% 29.83 in 6.2 mi WNW 8.1 mph - N/A   Mostly Cloudy
3:00 PM 80.6 °F 86.2 °F 75.2 °F 84% 29.80 in 6.2 mi WNW 5.8 mph - N/A   Mostly Cloudy
3:30 PM 80.6 °F 86.2 °F 75.2 °F 84% 29.80 in 6.2 mi WNW 8.1 mph - N/A   Mostly Cloudy
4:00 PM 78.8 °F - 73.4 °F 83% 29.80 in 6.2 mi NNW 9.2 mph - N/A   Mostly Cloudy
4:30 PM 78.8 °F - 73.4 °F 83% 29.80 in 6.2 mi NNW 8.1 mph - N/A   Mostly Cloudy
5:00 PM 80.6 °F 85.4 °F 73.4 °F 79% 29.77 in 6.2 mi NNW 8.1 mph - N/A   Mostly Cloudy
5:30 PM 80.6 °F 85.4 °F 73.4 °F 79% 29.77 in 6.2 mi West 9.2 mph - N/A   Mostly Cloudy
6:00 PM 78.8 °F - 73.4 °F 83% 29.77 in 6.2 mi West 6.9 mph - N/A   Mostly Cloudy
6:30 PM 78.8 °F - 75.2 °F 89% 29.77 in 6.2 mi WNW 10.4 mph - N/A   Mostly Cloudy
7:00 PM 82 °F - 76 °F 78% 29.75 in 6 mi NNW 5.8 mph - -   Scattered Clouds
7:00 PM 80.6 °F 85.4 °F 73.4 °F 79% 29.77 in 6.2 mi West 9.2 mph - N/A   Mostly Cloudy
7:30 PM 80.6 °F 86.2 °F 75.2 °F 84% 29.77 in 6.2 mi WNW 9.2 mph - N/A   Mostly Cloudy
8:00 PM 78.8 °F - 73.4 °F 83% 29.80 in 6.2 mi WNW 5.8 mph - N/A   Mostly Cloudy
8:30 PM 78.8 °F - 73.4 °F 83% 29.83 in 6.2 mi NNW 3.5 mph - N/A   Mostly Cloudy
9:00 PM 78.8 °F - 73.4 °F 83% 29.83 in 5.6 mi Calm Calm - N/A   Mostly Cloudy
9:30 PM 77.0 °F - 73.4 °F 89% 29.86 in 5.6 mi Calm Calm - N/A   Mostly Cloudy
10:00 PM 77.0 °F - 73.4 °F 89% 29.86 in 5.6 mi Calm Calm - N/A   Mostly Cloudy
10:30 PM 77.0 °F - 73.4 °F 89% 29.89 in 5.6 mi Calm Calm - N/A   Mostly Cloudy
11:30 PM 77.0 °F - 73.4 °F 89% 29.86 in 5.6 mi Calm Calm - N/A   Mostly Cloudy